CZ-6A DEB

Satellite information

Favourite Embed

Satellite Type and Status

DEBRISIN ORBIT

Key statistics

Satellite CZ-6A DEB at a glance.

Uptime

389

Days in orbit

Revolutions

≈ 14.4

Per day

Orbit

LEO

Low Earth Orbit

Inclination

88.8

Latest

Satellite identification and parameters

Extended collection of information and parameters for CZ-6A DEB.

Object identification

Identified? True

Debris? True

Object name: CZ-6A DEB

International designator: 2024-140HC

Object number (NORAD): 60825

Object ID (CCSDS): 60825

Country: PEOPLES REPUBLIC OF CHINA (PRC)

Current information (Y/N): Y

RCS size: SMALL

Orbital parameters

Period: 100.029 minutes

Inclination: 88.7927 deg

SMA: 7138.002 km

Apoapsis: 804.117 km

Periapsis: 715.616 km

RAAN: 296.4602 deg

Eccentricy: 0.00619932

Argument of periapsis: 243.7899 deg

Mean anomaly: 115.692 deg

Mean motion: 14.39586586 rev/day

Mean motion (dot): 0.00001914 rev/day2

B* drag term: 0.00059490864 1/REarth

Two-line elements (TLE)

Creation date: Aug. 30, 2025, 3:38 a.m.

Reference frame: TEME

Reference center: EARTH

Epoch: Aug. 29, 2025, 1:39 p.m. UTC

TLE line 0: 0 CZ-6A DEB

TLE line 1: 1 60825U 24140HC 25241.56936162 .00001914 00000-0 59491-3 0 9990

TLE line 2: 2 60825 88.7927 296.4602 0061993 243.7899 115.6920 14.39586586 54821

Live tracking on map

Real-time ground track for satellite CZ-6A DEB.

In-orbit conjunctions

A list of the most updated potential collisions computed for object CZ-6A DEB.

Target Orbit TCA Probability of collision Miss distance Type
FENGYUN 1C DEB SSO 2025-02-27 14:08:12 0.0001189141 782.0 (m) DEBRIS
NOAA 16 DEB SSO 2025-02-21 03:38:20 0.0002051654 233.0 (m) DEBRIS
NOAA 16 DEB SSO 2025-02-10 12:33:44 0.002403477 91.0 (m) DEBRIS
DMSP 5D-2 F13 DEB SSO 2025-01-17 01:29:10 0.0002171495 739.0 (m) DEBRIS
COSMOS 1898 LEO 2024-10-14 06:07:31 0.0002105779 301.0 (m) PAYLOAD

Associated space launch

18 Low Earth Orbit communication satellites with Ku, Q and V band payloads for the G60 constellation operated by Shanghai Spacecom Satellite Technology (SSST) with funding backed by the Shanghai local government. Initial constellation will consist of 1296 satellites by 2027 with long term plans to expand it to 12000 satellites.

CZ-6A DEB was lifted into orbit during the mission ‘Long March 6A | G60 Polar Group 01’, on board a Long March 6A space rocket.

The launch took place on Aug. 6, 2024, 6:42 a.m. from Launch Complex 9A.

For more information about the launch, click the button.

Launch to space Long March 6A | G60 Polar Group 01
Long March 6A | G60 Polar Group 01

Agency: N/A

Status: Launch Successful

Launch date: Aug. 6, 2024, 6:42 a.m. UTC

Rocket: Long March 6A

Launch pad: Launch Complex 9A

Location: Taiyuan Satellite Launch Center, People's Republic of China

...

Latest news about this satellite

News about space launch
Brightness of first Chinese broadband constellation satellites alarms astronomers

The first satellites of a Chinese broadband constellation are significantly brighter than those of Western systems, posing a new challenge for astronomers.

News about space launch
Chinese rocket stage breaks up into cloud of more than 700 pieces of space debris

HELSINKI — A Chinese Long March 6A rocket’s upper stage has fragmented into a cloud of over 700 pieces of space debris, adding to concerns about long-term orbital safety. China […]

News about space launch
China's Thousand Sails Megaconstellation Kicks Off with Dangerous Debris Field

China's Thousand Sails Megaconstellation Kicks Off with Dangerous Debris Field


Newsletter sign-up

Weekly statistics, charts and insights to help you stay on top of the space industry.